Regional Weather Roundup
Issued by NWS

Home | Current Version | Previous Version | Text Only | Print | Product List | Glossary Off
Versions: 1 2 3 4 5 6 7 8 9 10 11 12 13 14 15 16 17 18 19 20 21 22 23 24 25 26 27 28 29 30 31 32 33 34 35 36 37 38 39 40 41 42 43 44 45 46 47 48 49 50

000
ASUS43 KLOT 262310
RWRIL

ILLINOIS REGIONAL WEATHER ROUNDUP
NATIONAL WEATHER SERVICE CHICAGO/ROMEOVILLE IL
500 PM CST FRI DEC 26 2014

NOTE: "FAIR" INDICATES FEW OR NO CLOUDS BELOW 12,000 FEET WITH NO
SIGNIFICANT WEATHER AND/OR OBSTRUCTIONS TO VISIBILITY.

* THESE STATIONS ARE NOT UNDER NWS QUALITY CONTROL. THEY ALSO MAY NOT
  REPORT WEATHER SUCH AS PRECIPITATION OR FOG.

ILZ001-002-007-009-015-016-024-270000-
NORTHWEST ILLINOIS

CITY           SKY/WX    TMP DP  RH WIND       PRES   REMARKS
MOLINE         PTCLDY    48  37  65 S7        29.96R
STERLING*      PTCLDY    46  37  71 CALM      29.98R
SAVANNA*       CLOUDY    46  36  66 CALM      29.97R
$$

ILZ003-004-008-010-011-017-018-270000-
NORTH CENTRAL ILLINOIS

CITY           SKY/WX    TMP DP  RH WIND       PRES   REMARKS
ROCKFORD       MOCLDY    45  37  73 S6        29.99S
FREEPORT*      CLOUDY    44  37  76 CALM      29.99R
ROCHELLE*      PTCLDY    42  39  89 S10       29.99S
DE KALB*       PTCLDY    39  36  88 S10       30.00R WCI  32
PERU*          CLEAR     45  38  77 S6        30.00S
$$

ILZ005-006-012>014-019>023-270000-
NORTHEAST ILLINOIS

CITY           SKY/WX    TMP DP  RH WIND       PRES   REMARKS
CHICAGO-OHARE  MOCLDY    46  38  73 SW5       30.00R
CHICAGO-MIDWAY MOCLDY    50  40  68 S6        30.01S
AURORA         CLEAR     44  36  73 S3        30.00R
LANSING*       CLOUDY    49  43  80 S12       30.02S
JOLIET*        MOCLDY    46  40  77 S3        30.01R
WAUKEGAN       PTCLDY    42  35  76 CALM      30.00R
DUPAGE AIRPORT PTCLDY    43  37  79 S3        30.00R
KANKAKEE*      PTCLDY    46  42  86 S8        30.04S
WHEELING       PTCLDY    44  37  76 S7        30.02R
MORRIS*        CLOUDY    47  42  84 S6        30.00R
ROMEOVILLE*    PTCLDY    42  37  83 S7        30.01R
NORTHERLY ISL    N/A     49  38  65 S7          N/A
$$

LMZ740>746-270000-
SOUTHERN LAKE MICHIGAN

STATION/POSITION SKY/WX   TEMP    WIND        PRES    VSBY  WAVE
                          AIR SEA DIR/SP/G                  HT/PER
                          (F)     (DEG/KT/KT) (MB)    (MI)  (FT/S)
WAUKEGAN HARBOR            48     220/  2/  7   N/A
HARRISON CRIB              49     190/ 13/ 14   N/A
BURNHAM HARBOR             49     190/  4/ 10   N/A
CALUMET HARBOR             49     180/  4/  5 1015.1R
MICHIGAN CITY              49     160/  7/ 10   N/A
$$

ILZ025>027-034>036-040-047-049-050-058-095>099-270000-
WEST-CENTRAL ILLINOIS

CITY           SKY/WX    TMP DP  RH WIND       PRES   REMARKS
QUINCY         CLOUDY    52  42  69 S5        29.95F
GALESBURG*     CLEAR     46  40  78 S5        29.98R
MACOMB*        PTCLDY    47  41  78 CALM      30.00R
JACKSONVILLE*  MOCLDY    55  44  68 SE8       29.99S
PITTSFIELD*    CLOUDY    54  45  71 SE7       29.98F
$$

ILZ028>032-037-038-041>044-048-051>054-059>061-270000-
CENTRAL ILLINOIS

CITY           SKY/WX    TMP DP  RH WIND       PRES   REMARKS
PONTIAC        CLOUDY    50  45  81 S10       30.03R
BLOOMINGTON    PTCLDY    47  44  89 S9        30.03R
DECATUR        CLEAR     49  42  77 S10       30.05R
PEORIA         MOCLDY    50  41  71 S8        29.99S
LACON*         PTCLDY    46  38  73 SE5       29.99S
LINCOLN*       PTCLDY    50  43  78 S10       30.02S
SPRINGFIELD    PTCLDY    50  42  74 S10       30.03R
TAYLORVILLE    CLEAR     48  43  81 S9        30.04R
$$

ILZ033-039-045-046-055>057-062-063-270000-
EAST-CENTRAL ILLINOIS

CITY           SKY/WX    TMP DP  RH WIND       PRES   REMARKS
CHAMPAIGN      PTCLDY    45  42  89 S8        30.05S
DANVILLE*      PTCLDY    45  41  85 S7        30.04S
RANTOUL*       CLOUDY    49  46  86 S9        30.05S
MATTOON        PTCLDY    49  43  80 S7        30.06S
PARIS*         MOCLDY    45  42  91 S7        30.08S
$$

ILZ079-100>102-270000-
SOUTHWEST ILLINOIS

CITY           SKY/WX    TMP DP  RH WIND       PRES   REMARKS
BELLEVILLE     MOCLDY    53  46  77 S10       30.04S
CAHOKIA*       CLOUDY    55  45  68 S8        30.03S
SPARTA*        MOCLDY    51  43  76 S16G22    30.06F
$$

ILZ064>066-069>071-074>076-080>082-084>086-088>090-092>094-270000-
SOUTH-CENTRAL ILLINOIS

CITY           SKY/WX    TMP DP  RH WIND       PRES   REMARKS
CARBONDALE     MOCLDY    51  42  71 S7        30.11S
CAIRO*         MOCLDY    54  42  62 S8        30.12F
EFFINGHAM*     PTCLDY    53  41  63 S10       30.09R
MARION         MOCLDY    52  43  71 S12       30.11F
MT. VERNON     MOCLDY    50  41  71 S8        30.11R
CENTRALIA*     PTCLDY    50  43  76 S16       30.08S
SALEM*         PTCLDY    53  45  74 S12       30.08F
METROPOLIS*    CLOUDY    54  43  67 S7        30.12F
$$

ILZ067-068-072-073-078-083-087-091-270000-
SOUTHEAST ILLINOIS

CITY           SKY/WX    TMP DP  RH WIND       PRES   REMARKS
LAWRENCEVILLE  PTCLDY    49  43  80 S12       30.12S
FLORA*         PTCLDY    50  43  76 S12       30.10S
FAIRFIELD*     MOCLDY    49  43  79 S6        30.10S
HARRISBURG*    PTCLDY    53  43  70 S7        30.14S
ROBINSON*      MOCLDY    50  42  73 S10       30.11S
CARMI*         PTCLDY    52  45  77 S10       30.12S
$$

ABBREVIATIONS USED IN REMARKS
   TC - TEMPERATURE IN CELSIUS
  WCI - WIND CHILL INDEX
   HX - HEAT INDEX
  VSB - VISIBILITY
$$



USA.gov is the U.S. government's official web portal to all federal, state and local government web resources and services.